Phoenix Deer Valley, AZ

3:10 AM MST on December 09, 2019 (GMT -0700)
Phoenix-Deer Valley Municipal

Weather History for KDVT - August, 2019

Change the Weather History Date:

Wednesday, August 28, 2019

  Actual Average Record
Temperature  
Mean Temperature 91 °F -  
Max Temperature 107 °F 98 °F 111 °F (1998)
Min Temperature 75 °F 79 °F 73 °F (2016)
Cooling Degree Days 26    
Growing Degree Days 41 (Base 50)    
Moisture  
Dew Point 60 °F    
Average Humidity 36    
Maximum Humidity 87    
Minimum Humidity 21    
Precipitation  
Precipitation 0.10 in - - ()
Sea Level Pressure  
Sea Level Pressure 29.82 in    
Wind  
Wind Speed 6 mph ()    
Max Wind Speed 20 mph    
Max Gust Speed 34 mph    
Visibility 9.9 miles    
Events Rain , Thunderstorm    
Averages and records for this station are not official NWS values.
T = Trace of Precipitation, MM = Missing Value Source: Averaged Metar Reports

Daily Weather History Graph

Daily Weather History Graph

Search for Another Location

Airport or City:

Astronomy

Aug. 28, 2019 Rise Set
Actual Time 5:59 AM MST 6:59 PM MST
Civil Twilight 5:33 AM MST 7:24 PM MST
Nautical Twilight 5:03 AM MST 7:55 PM MST
Astronomical Twilight 4:32 AM MST 8:26 PM MST
Moon 3:44 AM MST (8/28) 6:06 PM MST (8/28)
Length of Visible Light 13h 51m
Length of Day
12h 59m
Waning Crescent, 4% of the Moon is Illuminated
Aug 28
Waning Crescent
Aug 30
New
Sep 5
First Quarter
Sep 13
Full
Sep 21
Last Quarter

Hourly Weather History & Observations

Time (MST) Temp. Heat Index Dew Point Humidity Pressure Visibility Wind Dir Wind Speed Gust Speed Precip Events Conditions
12:53 AM 93.0 °F 91.7 °F 57.0 °F 30% 29.72 in 10.0 mi Calm Calm - N/A   Clear
1:53 AM 91.9 °F 91.2 °F 59.0 °F 33% 29.73 in 10.0 mi SW 4.6 mph - N/A   Clear
2:53 AM 91.0 °F 90.9 °F 61.0 °F 36% 29.73 in 10.0 mi WSW 5.8 mph - N/A   Clear
3:53 AM 89.1 °F 88.8 °F 60.1 °F 38% 29.74 in 10.0 mi SW 3.5 mph - N/A   Clear
4:53 AM 89.1 °F 88.8 °F 60.1 °F 38% 29.77 in 10.0 mi South 4.6 mph - N/A   Clear
5:53 AM 88.0 °F 87.1 °F 59.0 °F 37% 29.79 in 10.0 mi Calm Calm - N/A   Clear
6:53 AM 90.0 °F 89.1 °F 59.0 °F 35% 29.83 in 10.0 mi SSE 4.6 mph - N/A   Clear
7:53 AM 91.9 °F 90.8 °F 57.9 °F 32% 29.84 in 10.0 mi South 3.5 mph - N/A   Clear
8:53 AM 93.9 °F 92.6 °F 57.0 °F 29% 29.86 in 10.0 mi SW 4.6 mph - N/A   Clear
9:53 AM 97.0 °F 95.0 °F 55.0 °F 24% 29.88 in 10.0 mi South 12.7 mph - N/A   Partly Cloudy
10:53 AM 99.0 °F 96.5 °F 53.1 °F 21% 29.88 in 10.0 mi SSW 11.5 mph 17.3 mph N/A   Clear
11:53 AM 102.0 °F 101.1 °F 57.0 °F 22% 29.87 in 10.0 mi SSW 9.2 mph 16.1 mph N/A   Clear
12:53 PM 102.9 °F 103.0 °F 57.9 °F 23% 29.83 in 10.0 mi West 11.5 mph - N/A   Clear
1:26 PM 104.0 °F 104.6 °F 59.0 °F 23% 29.90 in 10.0 mi WSW 12.7 mph - N/A   Clear
1:53 PM 104.0 °F 104.6 °F 59.0 °F 23% 29.80 in 10.0 mi SW 19.6 mph 23.0 mph N/A   Clear
2:53 PM 107.1 °F 108.1 °F 59.0 °F 21% 29.76 in 10.0 mi SW 16.1 mph 23.0 mph N/A   Clear
3:53 PM 106.0 °F 107.1 °F 60.1 °F 22% 29.73 in 10.0 mi SW 13.8 mph 21.9 mph N/A   Clear
4:53 PM 105.1 °F 107.1 °F 61.0 °F 24% 29.72 in 10.0 mi SW 10.4 mph - N/A   Clear
5:53 PM 104.0 °F 105.3 °F 60.1 °F 24% 29.72 in 10.0 mi West 8.1 mph 25.3 mph N/A   Clear
6:53 PM 102.0 °F 103.3 °F 61.0 °F 26% 29.73 in 10.0 mi SW 11.5 mph - N/A   Clear
7:53 PM 100.9 °F 102.7 °F 62.1 °F 28% 29.75 in 10.0 mi SW 8.1 mph - N/A   Clear
8:53 PM 98.1 °F 96.4 °F 55.9 °F 24% 29.80 in 10.0 mi East 12.7 mph 21.9 mph N/A Thunderstorm Mostly Cloudy
9:07 PM 95.0 °F 93.4 °F 55.9 °F 27% 29.91 in 10.0 mi East 13.8 mph 34.5 mph N/A Thunderstorm Thunderstorm
9:53 PM 75.0 °F - 70.0 °F 84% 29.95 in 8.0 mi ESE 15.0 mph 24.2 mph 0.08 in Rain , Thunderstorm Light Thunderstorms and Rain
10:12 PM 77.0 °F - 70.0 °F 79% 30.05 in 10.0 mi South 8.1 mph - 0.02 in Rain , Thunderstorm Light Rain
10:53 PM 75.9 °F - 72.0 °F 87% 29.96 in 10.0 mi South 5.8 mph - 0.02 in   Mostly Cloudy
11:53 PM 78.1 °F - 72.0 °F 81% 29.96 in 10.0 mi West 6.9 mph - N/A   Clear